Location: Clanezzo
(45.7500°N, 9.6000°E)
Time: 02:28:07
(UTC+00:00)

NOSS 3-4 (A) - Pass Details

Date: 12 May 2021
Orbit: 872 x 1340 km, 63.4° (Epoch: 06 May)

Event Time Altitude Azimuth Distance (km) Brightness Sun altitude
Rises 20:26:08 0° 321° (NW) 3,791 8.5 -15.0°
Reaches altitude 10° 20:28:39 10° 324° (NW) 2,898 7.4 -15.3°
Maximum altitude 20:35:35 70° 48° (NE) 1,225 4.0 -16.1°
Enters shadow 20:40:44 23° 128° (SE) 2,350 4.9 -16.7°
